Location: Newark
(40.4667°N, 5.6000°W)
Time: 22:43:22
(UTC+00:00)

A-11 Canister half - Visible Passes

Search period start: 22 November 2019 00:00
Search period end: 02 December 2019 00:00
Orbit: 1527 x 1682 km, 47.3° (Epoch: 21 November)

Date Brightness Start Highest point End Pass type
(mag) Time Alt. Az. Time Alt. Az. Time Alt. Az.
22 Nov 9.7 17:45:54 10° WNW 17:55:16 58° SW 18:04:21 10° SE visible
22 Nov 11.2 19:53:47 10° W 19:58:39 15° WSW 20:03:28 10° SSW visible
23 Nov 9.7 17:24:12 10° WNW 17:33:40 61° SW 17:42:49 10° SE visible
23 Nov 11.2 19:31:46 10° W 19:37:06 17° WSW 19:42:24 10° SSW visible
24 Nov 11.2 19:09:47 10° W 19:15:34 18° SW 19:21:17 10° SSW visible
25 Nov 11.3 18:47:52 10° W 18:54:02 19° SW 19:00:07 10° SSW visible
26 Nov 11.3 18:25:59 10° W 18:32:29 21° SW 18:38:54 10° S visible
27 Nov 11.3 18:04:07 10° W 18:10:57 22° SW 18:17:40 10° S visible
28 Nov 11.3 17:42:16 10° WNW 17:49:24 24° SW 17:56:24 10° S visible
29 Nov 11.3 17:20:26 10° WNW 17:27:50 26° SW 17:35:06 10° S visible
30 Nov 11.6 06:34:23 10° SSE 06:41:11 21° SE 06:47:58 10° E visible
01 Dec 11.6 06:13:09 10° SSE 06:19:37 19° SE 06:26:03 10° E visible
